| time (UTC) | temp F | wind direction | speed knots | gust knots | rain 1hr in | rain 24hr in | rain mn in | humidity % | barometer mb |
| 20260904011019 | 68 | 0 | 0.0 | 0.0 | 0.00 | 0.77 | 0.77 | 97 | 1016.0 |
| 20260904010517 | 68 | 0 | 0.0 | 0.9 | 0.00 | 0.77 | 0.77 | 97 | 1015.9 |
| 20260904010042 | 68 | 0 | 0.0 | 3.5 | 0.00 | 0.77 | 0.77 | 97 | 1015.9 |
| 20260904005518 | 68 | 0 | 0.9 | 3.5 | 0.00 | 0.77 | 0.77 | 97 | 1015.9 |
| 20260904005016 | 68 | 30 | 0.0 | 3.5 | 0.00 | 0.77 | 0.77 | 97 | 1015.8 |
| 20260904004538 | 68 | 0 | 0.0 | 0.9 | 0.00 | 0.77 | 0.77 | 97 | 1015.6 |
| 20260904004018 | 68 | 0 | 0.0 | 0.0 | 0.00 | 0.77 | 0.77 | 97 | 1015.3 |
| 20260904003516 | 68 | 0 | 0.0 | 0.0 | 0.00 | 0.77 | 0.77 | 97 | 1015.1 |
| 20260904003039 | 68 | 0 | 0.0 | 0.0 | 0.00 | 0.77 | 0.77 | 97 | 1015.2 |
| 20260904002518 | 69 | 0 | 0.0 | 1.7 | 0.00 | 0.77 | 0.77 | 97 | 1015.1 |
| 20260904002017 | 69 | 0 | 0.0 | 1.7 | 0.00 | 0.77 | 0.77 | 97 | 1015.0 |
| 20260904001539 | 69 | 0 | 0.0 | 2.6 | 0.00 | 0.77 | 0.77 | 97 | 1015.0 |
| 20260904001018 | 69 | 0 | 0.0 | 2.6 | 0.00 | 0.77 | 0.77 | 97 | 1015.0 |
| 20260904000520 | 69 | 154 | 0.0 | 2.6 | 0.00 | 0.77 | 0.77 | 97 | 1014.9 |
| 20260904000036 | 69 | 164 | 0.0 | 4.3 | 0.00 | 0.77 | 0.77 | 97 | 1014.9 |
| 20260903235517 | 69 | 169 | 0.0 | 4.3 | 0.00 | 0.77 | 0.77 | 97 | 1014.9 |
| 20260903235018 | 69 | 188 | 0.9 | 7.0 | 0.00 | 0.77 | 0.77 | 97 | 1014.8 |
| 20260903234537 | 69 | 216 | 1.7 | 7.0 | 0.00 | 0.77 | 0.77 | 97 | 1014.9 |
| 20260903234020 | 69 | 194 | 1.7 | 4.3 | 0.00 | 0.77 | 0.77 | 97 | 1014.8 |
| 20260903233518 | 69 | 0 | 0.9 | 5.2 | 0.00 | 0.77 | 0.77 | 97 | 1014.7 |
| 20260903233041 | 69 | 220 | 0.9 | 5.2 | 0.00 | 0.77 | 0.77 | 97 | 1014.7 |
| 20260903232520 | 69 | 186 | 1.7 | 7.8 | 0.00 | 0.77 | 0.77 | 97 | 1014.4 |
| 20260903232020 | 69 | 168 | 3.5 | 7.8 | 0.00 | 0.77 | 0.77 | 97 | 1014.3 |
| 20260903231534 | 69 | 181 | 2.6 | 5.2 | 0.00 | 0.77 | 0.77 | 97 | 1014.3 |
| 20260903231017 | 69 | 0 | 0.9 | 4.3 | 0.00 | 0.77 | 0.77 | 97 | 1014.2 |
| 20260903230517 | 69 | 0 | 0.0 | 4.3 | 0.00 | 0.77 | 0.77 | 97 | 1014.1 |
| 20260903230045 | 69 | 0 | 0.0 | 3.5 | 0.00 | 0.77 | 0.77 | 97 | 1014.0 |
| 20260903225518 | 69 | 0 | 0.9 | 3.5 | 0.00 | 0.77 | 0.77 | 97 | 1014.3 |
| 20260903225018 | 69 | 146 | 0.9 | 3.5 | 0.00 | 0.77 | 0.77 | 97 | 1014.4 |
| 20260903224538 | 69 | 139 | 0.0 | 5.2 | 0.00 | 0.77 | 0.77 | 97 | 1014.5 |
| 20260903224020 | 69 | 0 | 0.9 | 6.1 | 0.00 | 0.77 | 0.77 | 97 | 1014.7 |
| 20260903223519 | 69 | 205 | 2.6 | 6.1 | 0.00 | 0.77 | 0.77 | 97 | 1014.9 |
| 20260903223040 | 69 | 164 | 2.6 | 5.2 | 0.00 | 0.77 | 0.77 | 97 | 1014.8 |
| 20260903222520 | 69 | 173 | 0.9 | 4.3 | 0.00 | 0.77 | 0.77 | 97 | 1015.1 |
| 20260903222022 | 69 | 198 | 0.9 | 1.7 | 0.00 | 0.77 | 0.77 | 97 | 1015.1 |
| 20260903221537 | 69 | 0 | 0.0 | 1.7 | 0.00 | 0.77 | 0.77 | 97 | 1015.3 |
| 20260903221017 | 69 | 0 | 0.0 | 1.7 | 0.00 | 0.77 | 0.77 | 97 | 1015.2 |
| 20260903220520 | 69 | 0 | 0.0 | 2.6 | 0.00 | 0.77 | 0.77 | 97 | 1015.3 |
| 20260903220052 | 69 | 238 | 0.0 | 3.5 | 0.00 | 0.77 | 0.77 | 97 | 1015.6 |
| 20260903215522 | 69 | 0 | 0.9 | 4.3 | 0.00 | 0.77 | 0.77 | 97 | 1015.3 |
| 20260903215020 | 69 | 113 | 0.9 | 4.3 | 0.00 | 0.77 | 0.77 | 97 | 1015.1 |
| 20260903214538 | 69 | 0 | 1.7 | 4.3 | 0.00 | 0.77 | 0.77 | 97 | 1015.0 |
| 20260903214023 | 69 | 184 | 0.9 | 4.3 | 0.00 | 0.77 | 0.77 | 97 | 1015.6 |
| 20260903213524 | 69 | 0 | 0.9 | 4.3 | 0.00 | 0.77 | 0.77 | 97 | 1015.4 |
| 20260903213036 | 69 | 57 | 0.9 | 3.5 | 0.00 | 0.77 | 0.77 | 97 | 1015.6 |
| 20260903212519 | 69 | 242 | 0.9 | 3.5 | 0.01 | 0.77 | 0.77 | 97 | 1015.8 |
| 20260903212019 | 69 | 195 | 0.0 | 5.2 | 0.02 | 0.77 | 0.77 | 97 | 1015.7 |
| 20260903211540 | 69 | 0 | 0.0 | 6.1 | 0.03 | 0.77 | 0.77 | 97 | 1015.7 |
| 20260903211018 | 69 | 23 | 2.6 | 8.7 | 0.04 | 0.77 | 0.77 | 97 | 1015.6 |
| 20260903210517 | 69 | 11 | 3.5 | 8.7 | 0.05 | 0.77 | 0.77 | 97 | 1015.7 |
| 20260903210040 | 69 | 13 | 3.5 | 7.0 | 0.05 | 0.77 | 0.77 | 97 | 1015.6 |
| 20260903205518 | 69 | 27 | 1.7 | 7.0 | 0.05 | 0.77 | 0.77 | 97 | 1015.5 |
| 20260903205020 | 69 | 343 | 3.5 | 7.0 | 0.06 | 0.77 | 0.77 | 97 | 1015.6 |
| 20260903204536 | 69 | 24 | 3.5 | 6.1 | 0.07 | 0.77 | 0.77 | 97 | 1015.8 |
| 20260903204020 | 69 | 4 | 1.7 | 6.1 | 0.12 | 0.77 | 0.77 | 97 | 1015.8 |
| 20260903203516 | 68 | 328 | 1.7 | 7.8 | 0.25 | 0.77 | 0.77 | 97 | 1015.8 |
| 20260903203047 | 68 | 23 | 3.5 | 7.8 | 0.25 | 0.76 | 0.76 | 97 | 1015.9 |
| 20260903202519 | 68 | 49 | 2.6 | 6.1 | 0.25 | 0.76 | 0.76 | 97 | 1015.7 |
| 20260903202017 | 68 | 14 | 0.9 | 7.8 | 0.24 | 0.75 | 0.75 | 97 | 1016.0 |
| 20260903201541 | 68 | 30 | 1.7 | 7.8 | 0.22 | 0.73 | 0.73 | 96 | 1016.0 |
| 20260903201023 | 68 | 11 | 2.6 | 7.0 | 0.22 | 0.73 | 0.73 | 96 | 1016.0 |
| 20260903200518 | 68 | 352 | 0.9 | 8.7 | 0.21 | 0.72 | 0.72 | 96 | 1016.4 |
| 20260903200037 | 68 | 4 | 3.5 | 12.2 | 0.21 | 0.72 | 0.72 | 96 | 1016.1 |
| 20260903195520 | 69 | 347 | 3.5 | 12.2 | 0.21 | 0.72 | 0.72 | 96 | 1016.1 |
| 20260903195023 | 69 | 18 | 5.2 | 14.8 | 0.20 | 0.71 | 0.71 | 95 | 1016.1 |
| 20260903194535 | 69 | 343 | 6.1 | 17.4 | 0.18 | 0.69 | 0.69 | 95 | 1015.7 |
| 20260903194024 | 70 | 324 | 7.8 | 20.9 | 0.10 | 0.61 | 0.61 | 93 | 1015.8 |
| 20260903193520 | 71 | 330 | 10.4 | 20.9 | 0.00 | 0.51 | 0.51 | 91 | 1016.1 |
| 20260903193039 | 72 | 290 | 4.3 | 11.3 | 0.00 | 0.51 | 0.51 | 92 | 1016.0 |
| 20260903192518 | 72 | 306 | 0.9 | 3.5 | 0.00 | 0.51 | 0.51 | 94 | 1015.4 |
| 20260903192017 | 72 | 0 | 0.0 | 5.2 | 0.00 | 0.51 | 0.51 | 95 | 1014.8 |
| 20260903191538 | 72 | 306 | 0.9 | 5.2 | 0.00 | 0.51 | 0.51 | 96 | 1014.8 |
| 20260903191016 | 72 | 326 | 1.7 | 5.2 | 0.00 | 0.51 | 0.51 | 96 | 1014.9 |
| 20260903190518 | 72 | 0 | 0.0 | 8.7 | 0.00 | 0.51 | 0.51 | 96 | 1014.7 |
| 20260903190038 | 72 | 0 | 0.0 | 13.0 | 0.00 | 0.51 | 0.51 | 96 | 1014.8 |
| 20260903185518 | 72 | 349 | 3.5 | 13.0 | 0.00 | 0.51 | 0.51 | 96 | 1015.1 |
| 20260903185017 | 73 | 340 | 0.0 | 2.6 | 0.00 | 0.51 | 0.51 | 96 | 1014.9 |
| 20260903184538 | 73 | 0 | 0.0 | 1.7 | 0.00 | 0.51 | 0.51 | 96 | 1014.5 |
| 20260903184017 | 73 | 188 | 0.0 | 0.0 | 0.00 | 0.51 | 0.51 | 96 | 1014.3 |
| 20260903183517 | 73 | 0 | 0.0 | 1.7 | 0.00 | 0.51 | 0.51 | 96 | 1014.5 |
| 20260903183034 | 73 | 0 | 0.0 | 1.7 | 0.00 | 0.51 | 0.51 | 96 | 1014.5 |
| 20260903182519 | 73 | 0 | 0.0 | 1.7 | 0.00 | 0.51 | 0.51 | 96 | 1014.4 |
| 20260903182019 | 73 | 131 | 0.0 | 0.0 | 0.00 | 0.51 | 0.51 | 97 | 1014.3 |
| 20260903181539 | 73 | 0 | 0.0 | 0.0 | 0.00 | 0.51 | 0.51 | 97 | 1014.5 |
| 20260903181016 | 73 | 0 | 0.0 | 0.0 | 0.00 | 0.51 | 0.51 | 97 | 1014.3 |
| 20260903180518 | 73 | 0 | 0.0 | 0.0 | 0.00 | 0.51 | 0.51 | 97 | 1014.3 |
| 20260903180047 | 73 | 0 | 0.0 | 0.0 | 0.00 | 0.51 | 0.51 | 97 | 1014.3 |
| 20260903175518 | 73 | 0 | 0.0 | 0.9 | 0.00 | 0.51 | 0.51 | 97 | 1014.4 |
| 20260903175017 | 72 | 0 | 0.0 | 3.5 | 0.00 | 0.51 | 0.51 | 97 | 1014.2 |
| 20260903174538 | 72 | 0 | 0.0 | 5.2 | 0.00 | 0.51 | 0.51 | 97 | 1014.3 |
| 20260903174018 | 71 | 19 | 1.7 | 5.2 | 0.00 | 0.51 | 0.51 | 97 | 1014.3 |
| 20260903173520 | 71 | 347 | 3.5 | 7.0 | 0.00 | 0.51 | 0.51 | 97 | 1014.4 |
| 20260903173034 | 71 | 1 | 3.5 | 7.0 | 0.00 | 0.51 | 0.51 | 97 | 1014.5 |
| 20260903172518 | 71 | 358 | 0.9 | 3.5 | 0.09 | 0.51 | 0.51 | 97 | 1014.5 |
| 20260903172016 | 71 | 0 | 0.0 | 0.0 | 0.26 | 0.51 | 0.51 | 97 | 1014.4 |
| 20260903171545 | 71 | 0 | 0.0 | 0.9 | 0.32 | 0.51 | 0.51 | 97 | 1014.4 |
| 20260903171018 | 71 | 131 | 0.0 | 0.9 | 0.32 | 0.51 | 0.51 | 97 | 1014.4 |
| 20260903170521 | 71 | 0 | 0.0 | 2.6 | 0.32 | 0.51 | 0.51 | 97 | 1014.4 |
| 20260903170044 | 70 | 0 | 0.0 | 2.6 | 0.32 | 0.51 | 0.51 | 97 | 1014.5 |
| 20260903165524 | 69 | 138 | 0.0 | 1.7 | 0.33 | 0.51 | 0.51 | 97 | 1014.5 |
| 20260903165024 | 69 | 0 | 0.0 | 0.0 | 0.33 | 0.51 | 0.51 | 97 | 1014.7 |
| 20260903164545 | 69 | 0 | 0.0 | 2.6 | 0.33 | 0.51 | 0.51 | 97 | 1014.6 |
| 20260903164016 | 68 | 0 | 0.0 | 5.2 | 0.33 | 0.51 | 0.51 | 97 | 1014.6 |
| 20260903163517 | 67 | 245 | 0.9 | 14.8 | 0.35 | 0.51 | 0.51 | 96 | 1014.7 |
| 20260903163036 | 67 | 236 | 3.5 | 40.0 | 0.37 | 0.50 | 0.50 | 96 | 1015.1 |
| 20260903162518 | 66 | 211 | 7.8 | 40.0 | 0.26 | 0.39 | 0.39 | 96 | 1015.8 |
| 20260903162018 | 66 | 181 | 2.6 | 7.8 | 0.12 | 0.23 | 0.23 | 96 | 1016.3 |
| 20260903161537 | 66 | 184 | 0.9 | 2.6 | 0.17 | 0.19 | 0.19 | 96 | 1016.1 |
| 20260903161015 | 66 | 193 | 0.0 | 7.8 | 0.19 | 0.19 | 0.19 | 96 | 1016.1 |
| 20260903160524 | 66 | 0 | 0.0 | 7.8 | 0.19 | 0.19 | 0.19 | 96 | 1016.4 |
| 20260903160044 | 65 | 30 | 2.6 | 7.8 | 0.19 | 0.19 | 0.19 | 95 | 1016.2 |
| 20260903155521 | 65 | 0 | 0.0 | 7.8 | 0.18 | 0.18 | 0.18 | 95 | 1016.4 |
| 20260903155020 | 65 | 0 | 0.0 | 8.7 | 0.18 | 0.18 | 0.18 | 95 | 1016.6 |
| 20260903154539 | 66 | 184 | 3.5 | 11.3 | 0.18 | 0.18 | 0.18 | 94 | 1016.5 |
| 20260903154015 | 66 | 219 | 2.6 | 26.9 | 0.18 | 0.18 | 0.18 | 94 | 1016.9 |
| 20260903153516 | 67 | 159 | 7.0 | 29.5 | 0.16 | 0.16 | 0.16 | 93 | 1017.3 |
| 20260903153039 | 69 | 205 | 12.2 | 29.5 | 0.13 | 0.13 | 0.13 | 91 | 1018.1 |
| 20260903152517 | 72 | 237 | 10.4 | 26.1 | 0.13 | 0.13 | 0.13 | 90 | 1018.2 |
| 20260903152021 | 76 | 232 | 13.0 | 24.3 | 0.11 | 0.11 | 0.11 | 85 | 1018.2 |
| 20260903151538 | 78 | 235 | 2.6 | 6.1 | 0.01 | 0.01 | 0.01 | 81 | 1017.2 |
| 20260903151020 | 79 | 274 | 0.9 | 2.6 | 0.00 | 0.00 | 0.00 | 79 | 1016.7 |
| 20260903150520 | 80 | 0 | 0.0 | 0.0 | 0.00 | 0.00 | 0.00 | 78 | 1015.9 |
| 20260903150058 | 80 | 0 | 0.0 | 0.0 | 0.00 | 0.00 | 0.00 | 77 | 1015.6 |
| 20260903145518 | 80 | 0 | 0.0 | 0.0 | 0.00 | 0.00 | 0.00 | 77 | 1015.3 |
| 20260903145018 | 81 | 0 | 0.0 | 0.0 | 0.00 | 0.00 | 0.00 | 76 | 1015.1 |
| 20260903144537 | 81 | 0 | 0.0 | 0.0 | 0.00 | 0.00 | 0.00 | 74 | 1015.0 |
| 20260903144020 | 81 | 0 | 0.0 | 1.7 | 0.00 | 0.00 | 0.00 | 74 | 1015.0 |
| 20260903143517 | 82 | 0 | 0.0 | 2.6 | 0.00 | 0.00 | 0.00 | 72 | 1015.2 |
| 20260903143038 | 82 | 0 | 0.0 | 2.6 | 0.00 | 0.00 | 0.00 | 74 | 1015.1 |
| 20260903142525 | 82 | 0 | 0.0 | 2.6 | 0.00 | 0.00 | 0.00 | 73 | 1015.3 |
| 20260903142022 | 82 | 172 | 0.0 | 2.6 | 0.00 | 0.00 | 0.00 | 73 | 1015.1 |
| 20260903141541 | 82 | 0 | 0.0 | 2.6 | 0.00 | 0.00 | 0.00 | 74 | 1015.1 |
| 20260903141018 | 81 | 240 | 0.0 | 2.6 | 0.00 | 0.00 | 0.00 | 74 | 1015.2 |
| 20260903140518 | 81 | 0 | 0.0 | 1.7 | 0.00 | 0.00 | 0.00 | 76 | 1015.2 |
| 20260903140040 | 80 | 292 | 0.0 | 2.6 | 0.00 | 0.00 | 0.00 | 76 | 1015.0 |
| 20260903135519 | 80 | 219 | 0.0 | 2.6 | 0.00 | 0.00 | 0.00 | 75 | 1015.0 |
| 20260903135016 | 81 | 0 | 0.0 | 1.7 | 0.00 | 0.00 | 0.00 | 74 | 1015.0 |
| 20260903134547 | 81 | 0 | 0.0 | 0.9 | 0.00 | 0.00 | 0.00 | 76 | 1015.2 |
| 20260903134019 | 80 | 0 | 0.0 | 0.9 | 0.00 | 0.00 | 0.00 | 77 | 1015.3 |
| 20260903133516 | 79 | 0 | 0.0 | 1.7 | 0.00 | 0.00 | 0.00 | 80 | 1015.3 |
| 20260903133040 | 79 | 203 | 0.0 | 1.7 | 0.00 | 0.00 | 0.00 | 80 | 1015.2 |
| 20260903132518 | 78 | 231 | 0.0 | 0.9 | 0.00 | 0.00 | 0.00 | 80 | 1015.4 |
| 20260903132018 | 79 | 0 | 0.0 | 0.0 | 0.00 | 0.00 | 0.00 | 79 | 1015.3 |
| 20260903131540 | 78 | 0 | 0.0 | 0.9 | 0.00 | 0.00 | 0.00 | 80 | 1015.3 |
| 20260903131021 | 77 | 0 | 0.0 | 0.9 | 0.00 | 0.00 | 0.00 | 82 | 1015.3 |
| 20260903130518 | 77 | 0 | 0.0 | 0.9 | 0.00 | 0.00 | 0.00 | 83 | 1015.3 |
| 20260903130034 | 77 | 0 | 0.0 | 0.9 | 0.00 | 0.00 | 0.00 | 83 | 1015.3 |
| 20260903125522 | 76 | 0 | 0.0 | 0.0 | 0.00 | 0.00 | 0.00 | 83 | 1015.4 |
| 20260903125019 | 76 | 0 | 0.0 | 0.0 | 0.00 | 0.00 | 0.00 | 83 | 1015.5 |
| 20260903124548 | 77 | 0 | 0.0 | 0.0 | 0.00 | 0.00 | 0.00 | 81 | 1015.6 |
| 20260903124017 | 77 | 0 | 0.0 | 0.0 | 0.00 | 0.00 | 0.00 | 83 | 1015.5 |
| 20260903123519 | 76 | 0 | 0.0 | 0.0 | 0.00 | 0.00 | 0.00 | 84 | 1015.5 |
| 20260903123037 | 75 | 0 | 0.0 | 0.0 | 0.00 | 0.00 | 0.00 | 85 | 1015.6 |
| 20260903122516 | 74 | 0 | 0.0 | 0.0 | 0.00 | 0.00 | 0.00 | 87 | 1015.7 |
| 20260903122019 | 74 | 0 | 0.0 | 0.0 | 0.00 | 0.00 | 0.00 | 87 | 1015.7 |
| 20260903121537 | 74 | 0 | 0.0 | 0.0 | 0.00 | 0.00 | 0.00 | 88 | 1015.6 |
| 20260903121017 | 73 | 0 | 0.0 | 0.0 | 0.00 | 0.00 | 0.00 | 89 | 1015.6 |
| 20260903120522 | 73 | 0 | 0.0 | 0.0 | 0.00 | 0.00 | 0.00 | 89 | 1015.5 |
| 20260903120034 | 72 | 0 | 0.0 | 0.0 | 0.00 | 0.00 | 0.00 | 90 | 1015.5 |
| 20260903115519 | 72 | 0 | 0.0 | 0.0 | 0.00 | 0.00 | 0.00 | 91 | 1015.6 |
| 20260903115021 | 71 | 0 | 0.0 | 0.0 | 0.00 | 0.00 | 0.00 | 91 | 1015.6 |
| 20260903114539 | 71 | 0 | 0.0 | 0.0 | 0.00 | 0.00 | 0.00 | 92 | 1015.5 |
| 20260903114017 | 71 | 0 | 0.0 | 0.0 | 0.00 | 0.00 | 0.00 | 92 | 1015.5 |
| 20260903113515 | 70 | 0 | 0.0 | 0.0 | 0.00 | 0.00 | 0.00 | 93 | 1015.4 |
| 20260903113042 | 70 | 0 | 0.0 | 0.9 | 0.00 | 0.00 | 0.00 | 93 | 1015.4 |
| 20260903112516 | 70 | 0 | 0.0 | 0.9 | 0.00 | 0.00 | 0.00 | 93 | 1015.4 |
| 20260903112016 | 70 | 0 | 0.0 | 0.9 | 0.00 | 0.00 | 0.00 | 93 | 1015.4 |
| 20260903111538 | 70 | 0 | 0.0 | 0.9 | 0.00 | 0.00 | 0.00 | 93 | 1015.3 |
| 20260903111017 | 70 | 0 | 0.0 | 0.9 | 0.00 | 0.00 | 0.00 | 93 | 1015.2 |
| 20260903110517 | 70 | 0 | 0.0 | 0.9 | 0.00 | 0.00 | 0.00 | 93 | 1015.3 |
| 20260903110040 | 70 | 0 | 0.0 | 1.7 | 0.00 | 0.00 | 0.00 | 93 | 1015.2 |
| 20260903105518 | 70 | 0 | 0.0 | 1.7 | 0.00 | 0.00 | 0.00 | 93 | 1015.2 |
| 20260903105018 | 70 | 0 | 0.0 | 0.9 | 0.00 | 0.00 | 0.00 | 92 | 1015.1 |
| 20260903104536 | 70 | 0 | 0.0 | 0.0 | 0.00 | 0.00 | 0.00 | 92 | 1015.0 |
| 20260903104017 | 70 | 0 | 0.0 | 0.0 | 0.00 | 0.00 | 0.00 | 92 | 1015.0 |
| 20260903103517 | 70 | 0 | 0.0 | 0.0 | 0.00 | 0.00 | 0.00 | 91 | 1014.9 |
| 20260903103039 | 70 | 0 | 0.0 | 0.0 | 0.00 | 0.00 | 0.00 | 91 | 1014.9 |
| 20260903102517 | 70 | 0 | 0.0 | 0.0 | 0.00 | 0.00 | 0.00 | 91 | 1014.9 |
| 20260903102017 | 70 | 0 | 0.0 | 0.0 | 0.00 | 0.00 | 0.00 | 91 | 1014.9 |
| 20260903101537 | 71 | 0 | 0.0 | 0.0 | 0.00 | 0.00 | 0.00 | 91 | 1014.7 |
| 20260903101020 | 71 | 0 | 0.0 | 0.0 | 0.00 | 0.00 | 0.00 | 91 | 1014.8 |
| 20260903100519 | 71 | 0 | 0.0 | 0.0 | 0.00 | 0.00 | 0.00 | 90 | 1014.8 |
| 20260903100039 | 71 | 0 | 0.0 | 0.0 | 0.00 | 0.00 | 0.00 | 90 | 1014.8 |
| 20260903095519 | 71 | 0 | 0.0 | 0.9 | 0.00 | 0.00 | 0.00 | 90 | 1014.9 |
| 20260903095018 | 71 | 0 | 0.0 | 0.9 | 0.00 | 0.00 | 0.00 | 90 | 1014.9 |
| 20260903094551 | 71 | 0 | 0.0 | 1.7 | 0.00 | 0.00 | 0.00 | 89 | 1014.8 |
| 20260903094016 | 71 | 0 | 0.0 | 1.7 | 0.00 | 0.00 | 0.00 | 89 | 1014.8 |
| 20260903093520 | 71 | 0 | 0.0 | 2.6 | 0.00 | 0.00 | 0.00 | 89 | 1014.7 |
| 20260903093037 | 72 | 0 | 0.0 | 2.6 | 0.00 | 0.00 | 0.00 | 89 | 1014.6 |
| 20260903092520 | 72 | 0 | 0.0 | 2.6 | 0.00 | 0.00 | 0.00 | 89 | 1014.6 |
| 20260903092019 | 72 | 255 | 0.0 | 2.6 | 0.00 | 0.00 | 0.00 | 89 | 1014.5 |
| 20260903091543 | 72 | 0 | 0.0 | 2.6 | 0.00 | 0.00 | 0.00 | 90 | 1014.5 |
| 20260903091017 | 72 | 0 | 0.9 | 2.6 | 0.00 | 0.00 | 0.00 | 90 | 1014.4 |
| 20260903090518 | 72 | 0 | 0.0 | 2.6 | 0.00 | 0.00 | 0.00 | 90 | 1014.4 |
| 20260903090038 | 72 | 0 | 0.0 | 2.6 | 0.00 | 0.00 | 0.00 | 90 | 1014.4 |
| 20260903085517 | 72 | 219 | 0.9 | 2.6 | 0.00 | 0.00 | 0.00 | 90 | 1014.4 |
| 20260903085019 | 72 | 0 | 0.0 | 0.9 | 0.00 | 0.00 | 0.00 | 89 | 1014.4 |
| 20260903084544 | 72 | 0 | 0.0 | 0.9 | 0.00 | 0.00 | 0.00 | 89 | 1014.3 |
| 20260903084016 | 72 | 0 | 0.0 | 2.6 | 0.00 | 0.00 | 0.00 | 89 | 1014.3 |
| 20260903083521 | 72 | 0 | 0.0 | 2.6 | 0.00 | 0.00 | 0.00 | 89 | 1014.2 |
| 20260903083037 | 72 | 0 | 0.0 | 2.6 | 0.00 | 0.00 | 0.00 | 89 | 1014.1 |
| 20260903082519 | 72 | 0 | 0.0 | 3.5 | 0.00 | 0.00 | 0.00 | 88 | 1014.1 |
| 20260903082017 | 72 | 232 | 1.7 | 3.5 | 0.00 | 0.00 | 0.00 | 88 | 1014.0 |
| 20260903081535 | 73 | 233 | 0.9 | 3.5 | 0.00 | 0.00 | 0.00 | 88 | 1014.0 |
| 20260903081017 | 73 | 231 | 0.9 | 3.5 | 0.00 | 0.00 | 0.00 | 88 | 1014.1 |
| 20260903080516 | 73 | 224 | 0.9 | 3.5 | 0.00 | 0.00 | 0.00 | 87 | 1014.1 |
| 20260903080034 | 73 | 257 | 0.9 | 4.3 | 0.00 | 0.00 | 0.00 | 87 | 1014.2 |
| 20260903075518 | 73 | 221 | 1.7 | 4.3 | 0.00 | 0.00 | 0.00 | 87 | 1014.1 |
| 20260903075018 | 73 | 226 | 0.9 | 3.5 | 0.00 | 0.00 | 0.00 | 87 | 1014.2 |
| 20260903074545 | 73 | 216 | 0.9 | 3.5 | 0.00 | 0.00 | 0.00 | 86 | 1014.3 |
| 20260903074020 | 73 | 224 | 0.9 | 3.5 | 0.00 | 0.00 | 0.00 | 86 | 1014.2 |
| 20260903073518 | 73 | 0 | 0.9 | 3.5 | 0.00 | 0.00 | 0.00 | 87 | 1014.1 |
| 20260903073039 | 73 | 240 | 0.9 | 3.5 | 0.00 | 0.00 | 0.00 | 88 | 1014.2 |
| 20260903072519 | 73 | 226 | 0.0 | 2.6 | 0.00 | 0.00 | 0.00 | 87 | 1014.3 |
| 20260903072017 | 73 | 0 | 0.0 | 2.6 | 0.00 | 0.00 | 0.00 | 88 | 1014.3 |
| 20260903071535 | 72 | 0 | 0.0 | 1.7 | 0.00 | 0.00 | 0.00 | 89 | 1014.3 |
| 20260903071018 | 72 | 0 | 0.0 | 0.9 | 0.00 | 0.00 | 0.00 | 90 | 1014.3 |
| 20260903070519 | 72 | 0 | 0.0 | 0.0 | 0.00 | 0.00 | 0.00 | 90 | 1014.3 |
| 20260903070035 | 72 | 0 | 0.0 | 1.7 | 0.00 | 0.00 | 0.00 | 91 | 1014.3 |
| 20260903065517 | 71 | 0 | 0.0 | 1.7 | 0.00 | 0.00 | 0.00 | 91 | 1014.3 |
| 20260903065017 | 71 | 0 | 0.0 | 1.7 | 0.00 | 0.00 | 0.00 | 92 | 1014.4 |
| 20260903064539 | 71 | 0 | 0.0 | 0.0 | 0.00 | 0.00 | 0.00 | 91 | 1014.2 |
| 20260903064017 | 71 | 0 | 0.0 | 0.0 | 0.00 | 0.00 | 0.00 | 91 | 1014.0 |
| 20260903063522 | 71 | 0 | 0.0 | 0.0 | 0.00 | 0.00 | 0.00 | 91 | 1014.0 |
| 20260903063036 | 72 | 0 | 0.0 | 1.7 | 0.00 | 0.00 | 0.00 | 91 | 1014.0 |
| 20260903062518 | 72 | 0 | 0.0 | 2.6 | 0.00 | 0.00 | 0.00 | 91 | 1014.2 |
| 20260903062017 | 72 | 0 | 0.0 | 3.5 | 0.00 | 0.00 | 0.00 | 91 | 1014.3 |
| 20260903061538 | 72 | 0 | 0.0 | 3.5 | 0.00 | 0.00 | 0.00 | 91 | 1014.3 |
| 20260903061024 | 72 | 172 | 0.0 | 0.0 | 0.00 | 0.00 | 0.00 | 92 | 1014.4 |
| 20260903060517 | 72 | 0 | 0.0 | 0.0 | 0.00 | 0.00 | 0.00 | 91 | 1014.4 |
| 20260903060041 | 72 | 0 | 0.0 | 0.0 | 0.00 | 0.00 | 0.00 | 91 | 1014.3 |
| 20260903055518 | 72 | 0 | 0.0 | 0.0 | 0.00 | 0.00 | 0.00 | 91 | 1014.4 |
| 20260903055020 | 72 | 0 | 0.0 | 0.0 | 0.00 | 0.00 | 0.00 | 91 | 1014.6 |
| 20260903054536 | 72 | 0 | 0.0 | 0.0 | 0.00 | 0.00 | 0.00 | 90 | 1014.4 |
| 20260903054018 | 72 | 0 | 0.0 | 0.0 | 0.00 | 0.00 | 0.00 | 90 | 1014.3 |
| 20260903053522 | 72 | 0 | 0.0 | 0.0 | 0.00 | 0.00 | 0.00 | 90 | 1014.4 |
| 20260903053054 | 72 | 0 | 0.0 | 2.6 | 0.00 | 0.00 | 0.00 | 90 | 1014.4 |
| 20260903052523 | 72 | 0 | 0.0 | 2.6 | 0.00 | 0.00 | 0.00 | 90 | 1014.5 |
| 20260903052018 | 72 | 0 | 0.0 | 1.7 | 0.00 | 0.00 | 0.00 | 90 | 1014.5 |
| 20260903051538 | 72 | 160 | 0.0 | 2.6 | 0.00 | 0.00 | 0.00 | 90 | 1014.5 |
| 20260903051018 | 72 | 0 | 0.0 | 2.6 | 0.00 | 0.00 | 0.00 | 90 | 1014.6 |
| 20260903050519 | 72 | 172 | 0.0 | 2.6 | 0.00 | 0.00 | 0.00 | 90 | 1014.5 |
| 20260903050045 | 72 | 0 | 0.0 | 0.0 | 0.00 | 0.00 | 0.00 | 90 | 1014.5 |
| 20260903045519 | 73 | 0 | 0.0 | 0.0 | 0.00 | 0.00 | 0.00 | 90 | 1014.5 |
| 20260903045020 | 73 | 0 | 0.0 | 0.0 | 0.00 | 0.00 | 0.00 | 89 | 1014.4 |
| 20260903044535 | 73 | 0 | 0.0 | 0.9 | 0.00 | 0.00 | 0.00 | 89 | 1014.4 |
| 20260903044017 | 73 | 0 | 0.0 | 1.7 | 0.00 | 0.00 | 0.00 | 89 | 1014.3 |
| 20260903043520 | 73 | 0 | 0.0 | 4.3 | 0.00 | 0.00 | 0.00 | 89 | 1014.2 |
| 20260903043039 | 73 | 189 | 0.9 | 5.2 | 0.00 | 0.00 | 0.00 | 89 | 1014.2 |
| 20260903042516 | 73 | 190 | 1.7 | 7.0 | 0.00 | 0.00 | 0.00 | 89 | 1014.4 |
| 20260903042022 | 74 | 0 | 0.0 | 7.0 | 0.00 | 0.00 | 0.00 | 89 | 1014.3 |
| 20260903041539 | 74 | 183 | 1.7 | 7.0 | 0.00 | 0.00 | 0.00 | 89 | 1014.2 |
| 20260903041019 | 74 | 242 | 0.0 | 2.6 | 0.00 | 0.00 | 0.00 | 89 | 1014.3 |
| 20260903040520 | 74 | 212 | 0.0 | 4.3 | 0.00 | 0.00 | 0.00 | 89 | 1014.1 |
| 20260903040037 | 74 | 0 | 0.9 | 7.0 | 0.00 | 0.00 | 0.00 | 88 | 1014.0 |
| 20260903035524 | 75 | 0 | 1.7 | 7.0 | 0.00 | 0.00 | 0.00 | 88 | 1014.2 |
| 20260903035016 | 75 | 186 | 2.6 | 9.6 | 0.00 | 0.00 | 0.00 | 87 | 1014.3 |
| 20260903034534 | 75 | 155 | 2.6 | 9.6 | 0.00 | 0.00 | 0.00 | 87 | 1014.2 |
| 20260903034019 | 76 | 163 | 3.5 | 9.6 | 0.00 | 0.00 | 0.00 | 86 | 1014.3 |
| 20260903033518 | 76 | 185 | 3.5 | 6.1 | 0.00 | 0.00 | 0.00 | 86 | 1014.2 |
| 20260903033038 | 76 | 189 | 1.7 | 8.7 | 0.00 | 0.00 | 0.00 | 86 | 1014.2 |
| 20260903032518 | 76 | 181 | 3.5 | 8.7 | 0.00 | 0.00 | 0.00 | 85 | 1014.0 |
| 20260903032022 | 76 | 191 | 3.5 | 7.8 | 0.00 | 0.00 | 0.00 | 85 | 1014.2 |
| 20260903031539 | 75 | 177 | 2.6 | 5.2 | 0.00 | 0.00 | 0.00 | 85 | 1014.3 |
| 20260903031019 | 75 | 0 | 0.0 | 2.6 | 0.00 | 0.00 | 0.00 | 86 | 1013.8 |
| 20260903030519 | 75 | 0 | 0.0 | 2.6 | 0.00 | 0.00 | 0.00 | 85 | 1013.5 |
| 20260903030037 | 75 | 257 | 0.0 | 0.0 | 0.00 | 0.00 | 0.00 | 85 | 1013.2 |
| 20260903025522 | 75 | 0 | 0.0 | 0.9 | 0.00 | 0.00 | 0.00 | 86 | 1013.6 |
| 20260903025017 | 75 | 0 | 0.0 | 0.9 | 0.00 | 0.00 | 0.00 | 85 | 1013.2 |
| 20260903024538 | 76 | 0 | 0.0 | 0.9 | 0.00 | 0.00 | 0.00 | 84 | 1012.8 |
| 20260903024018 | 76 | 0 | 0.0 | 0.9 | 0.00 | 0.00 | 0.00 | 84 | 1013.2 |
| 20260903023517 | 76 | 0 | 0.0 | 0.9 | 0.00 | 0.00 | 0.00 | 83 | 1013.3 |
| 20260903023040 | 76 | 0 | 0.0 | 0.9 | 0.00 | 0.00 | 0.00 | 83 | 1013.1 |
| 20260903022518 | 76 | 0 | 0.0 | 0.9 | 0.00 | 0.00 | 0.00 | 83 | 1013.1 |
| 20260903022019 | 76 | 0 | 0.0 | 0.9 | 0.00 | 0.00 | 0.00 | 82 | 1013.3 |
| 20260903021548 | 77 | 0 | 0.0 | 0.9 | 0.00 | 0.00 | 0.00 | 81 | 1013.7 |
| 20260903021016 | 77 | 0 | 0.0 | 1.7 | 0.00 | 0.00 | 0.00 | 80 | 1013.9 |
| 20260903020517 | 77 | 0 | 0.0 | 1.7 | 0.00 | 0.00 | 0.00 | 80 | 1014.2 |
| 20260903020034 | 77 | 0 | 0.0 | 1.7 | 0.00 | 0.00 | 0.00 | 79 | 1014.3 |
| 20260903015520 | 77 | 0 | 0.0 | 3.5 | 0.00 | 0.00 | 0.00 | 79 | 1014.3 |
| 20260903015018 | 77 | 354 | 0.0 | 3.5 | 0.00 | 0.00 | 0.00 | 78 | 1014.2 |
| 20260903014535 | 78 | 0 | 0.9 | 3.5 | 0.00 | 0.00 | 0.00 | 77 | 1014.3 |
| 20260903014019 | 78 | 26 | 0.9 | 4.3 | 0.00 | 0.00 | 0.00 | 77 | 1014.4 |
| 20260903013517 | 79 | 18 | 0.0 | 4.3 | 0.00 | 0.00 | 0.00 | 76 | 1014.2 |
| 20260903013034 | 79 | 25 | 1.7 | 7.0 | 0.00 | 0.00 | 0.00 | 75 | 1014.1 |
| 20260903012521 | 80 | 318 | 2.6 | 8.7 | 0.00 | 0.00 | 0.00 | 74 | 1014.1 |
| 20260903012016 | 81 | 350 | 2.6 | 8.7 | 0.00 | 0.00 | 0.00 | 73 | 1014.0 |
| 20260903011540 | 82 | 344 | 2.6 | 7.0 | 0.00 | 0.00 | 0.00 | 70 | 1013.9 |